sat.trackr.live / text

‹ back to catalog

STARLINK-34406

NORAD 64705 · 2025-142K

PAYLOAD ACTIVE UNKNOWN

§ Identity

Operator
Country
US
Launch date
2025-06-28
Launch site
AFWTR
Launch vehicle
Mass (kg)
RCS (m²)

Purposes: comms

External: N2YO · Heavens-Above · Gunter

§ Orbital elements

Epoch: 2026-09-20T05:20:52.448064Z

Period
94.14 min
Inclination
70.0005°
Eccentricity
0.0002833
Mean motion
15.29591582 rev/d
Perigee alt
475.1 km
Apogee alt
479.0 km
Semi-major
6,855.2 km
B*
3.9540e-4
RAAN
181.8326°
Arg perigee
271.8193°
Mean anomaly
88.2658°
Rev number
6,879

§ Raw data

STARLINK-344061 64705U 25142K   26263.22282926  .00011259  00000+0  39540-3 0  99992 64705  70.0005 181.8326 0002833 271.8193  88.2658 15.29591582 68796

JSON: /api/v1/satellites/64705 · /tle

For live sub-satellite position, see the globe view (requires WebGL).

§ Visibility from observer

Set your observer location to see the next 7 days of passes ≥ 10°. The values pass through the URL so the page stays shareable.

No JS? Fill the form by hand. The geolocation button needs JavaScript.